[[{"header":{"parameterUnit":"m.s-1","parameterCategory":1,"la1":30.2991,"la2":30.254,"lo1":-89.0895,"lo2":-89.0444,"dy":0.0017,"dx":0.0017,"nx":28,"ny":28,"refTime":"2025-01-31T03:00:00:Z","depth":0,"parameterNumber":2,"parameterNumberName":"U-component_of_WINDS"},"data":[0,0,0,0,0,0,0,0,0,0,0,0,0,0,0,0,0,0,0,0,0,0,0,0,0,0,0,0,0,0,0,0,0,0,0,0,0,0,0,0,0,0,0,0,0,0,0,0,0,0,0,0,0,0,0,0,0,0,0.9293,0.9294,0,0.9396,0.9397,0.9398,0.9416,0.9415,0.9414,0.9413,0.9521,0.9524,0.9528,0,0,0,0,0,0,0,0,0,0,0,0,0,0.9113,0.9116,0.9293,0.9294,0.9295,0.9395,0.9397,0.9398,0.9416,0.9415,0.9414,0.9413,0.952,0.9524,0.9528,0,0,0,0,0,0,0,0,0,0,0,0,0,0.9201,0.9118,0.9293,0.9316,0.9319,0.9395,0.9397,0.9399,0.9416,0.9415,0.9414,0.9413,0.9518,0.9523,0.9529,0.9589,0,0,0.9546,0.9548,0,0,0,0,0,0,0,0,0.9196,0.9208,0.9312,0.9315,0.9318,0.9392,0.9373,0.9463,0.9417,0.938,0.9413,0.9412,0.9479,0.9488,0.951,0.9594,0.9598,0.9546,0.9549,0.9552,0.9553,0,0,0,0,0,0,0,0.919,0.9204,0.9334,0.9313,0.9317,0.9322,0.9333,0.939,0.9435,0.9383,0.9384,0.9396,0.9481,0.9504,0.9512,0.96,0.9546,0.9551,0.9554,0.9556,0.9738,0.9739,0,0,0,0,0,0,0.918,0.9198,0.933,0.9337,0.9253,0.9327,0.9339,0.937,0.9435,0.9444,0.9397,0.9397,0.9496,0.9506,0.9516,0.959,0.9552,0.9557,0.956,0.9736,0.9738,0.974,0,0,0,0,0,0,0.9176,0.9191,0.9326,0.9268,0.9285,0.9331,0.9365,0.9372,0.9396,0.9446,0.9454,0.9413,0.9495,0.9509,0.957,0.9594,0.9559,0.9564,0.9734,0.9737,0.9739,0.9739,0,0,0,0,0,0,0.917,0.919,0.9213,0.9268,0.9289,0.9378,0.9367,0.9375,0.9405,0.9406,0.9463,0.9471,0.9495,0.9562,0.9576,0.9601,0.9569,0.9732,0.9735,0.9738,0.9737,0.9741,0.9744,0,0,0,0,0,0.9164,0.9209,0.9214,0.923,0.9318,0.9379,0.9391,0.9417,0.9407,0.9431,0.9462,0.9469,0.9589,0.9568,0.9584,0.9611,0.9731,0.9734,0.9738,0.9735,0.974,0.9744,0,0,0,0,0,0,0.9156,0.9217,0.9223,0.9287,0.9328,0.9382,0.9413,0.9422,0.9467,0.9465,0.9496,0.9509,0.9569,0.9596,0.9572,0.9672,0.9659,0.9666,0.9652,0.9657,0.9661,0.9653,0.9573,0,0,0,0,0,0.9162,0.9206,0.9257,0.9309,0.9329,0.9367,0.9395,0.9412,0.9455,0.9473,0.9509,0.9552,0.9599,0.963,0.9676,0.9741,0.9753,0.9767,0.9771,0.9774,0.9779,0.9815,0.9822,0.9751,0.9751,0.9751,0,0,0.9174,0.9213,0.9239,0.9308,0.9342,0.9387,0.9382,0.943,0.9464,0.9481,0.9541,0.9569,0.9618,0.9682,0.9711,0.9706,0.9802,0.9778,0.978,0.9784,0.9819,0.9826,0.9832,0.9753,0.9753,0.9752,0,0,0.922,0.9254,0.93,0.9334,0.9384,0.9409,0.942,0.9473,0.9492,0.9553,0.9566,0.9607,0.9688,0.9722,0.9751,0.9808,0.9816,0.9823,0.9842,0.9876,0.9882,0.9887,0.9907,0.9914,0.9828,0.9828,0.9828,0,0.9229,0.9298,0.9324,0.9371,0.9401,0.9417,0.9464,0.9496,0.9559,0.958,0.9573,0.9674,0.9708,0.978,0.9794,0.9816,0.983,0.9816,0.9879,0.9884,0.9889,0.9909,0.9916,0.9828,0.9828,0.9828,0.9828,0,0.9306,0.9353,0.9385,0.9445,0.9478,0.9526,0.9559,0.959,0.9603,0.9629,0.9691,0.9732,0.9787,0.9805,0.9819,0.9878,0.9873,0.9872,0.986,0.9896,0.9915,0.9923,0.9829,0.9829,0.9829,0.9828,0,0,0.9351,0.9423,0.9434,0.9461,0.9518,0.9555,0.9603,0.9655,0.9681,0.9724,0.9765,0.9833,0.9831,0.9863,0.9881,0.9911,0.9954,0.9907,0.9908,0.9914,1.0021,1.0021,1.003,0.9959,0.9961,0.9962,1.0017,0,0.9403,0.9488,0.9513,0.9585,0.9629,0.9644,0.9686,0.9725,0.975,0.9791,0.9819,0.9866,0.9861,0.988,0.9911,0.9942,0.9976,0.9938,0.9998,0.9999,0.9984,1.004,1.004,1.009,1.0024,1.0026,1.0026,0,0.9476,0.9519,0.9595,0.9645,0.9664,0.9701,0.9751,0.979,0.9834,0.9851,0.9885,0.99,0.9951,0.9935,1.0006,0.998,1.0005,1.0024,1.0027,1.0033,1.0015,1.0047,1.0107,1.0114,1.0038,1.0037,1.0037,0,0.95,0.9577,0.9632,0.9655,0.9715,0.974,0.9767,0.981,0.9839,0.9883,0.9903,0.9952,0.9979,1.0017,1.0044,1.003,1.0112,1.0099,1.0127,1.0126,1.0143,1.0142,1.0207,1.016,1.016,1.0159,1.0159,0,0.9555,0.9601,0.9644,0.9678,0.973,0.9757,0.9808,0.9835,0.9873,0.9913,0.9929,0.9966,1.0,1.0042,1.0064,1.0118,1.013,1.0145,1.015,1.0143,1.0141,1.0161,1.0158,1.0162,1.0161,1.0161,1.016,0,0.9591,0.9622,0.9683,0.9734,0.9748,0.9784,0.9828,0.9862,0.9887,0.9937,0.995,0.999,1.004,1.0071,1.0134,1.0149,1.0208,1.0213,1.0193,1.0196,1.0221,1.0218,1.0301,1.0313,1.0258,1.0258,1.0259,0,0.9625,0.966,0.9715,0.9742,0.9768,0.9813,0.9843,0.9871,0.9902,0.9955,0.9982,1.0032,1.0074,1.0153,1.0187,1.0236,1.0241,1.0267,1.0249,1.024,1.0241,1.0238,1.0242,1.027,1.027,1.0271,1.0271,0,0.9681,0.9694,0.9736,0.9784,0.9819,0.9859,0.9898,0.9919,0.9954,0.9988,1.0038,1.0071,1.0135,1.0185,1.0236,1.0263,1.0273,1.0276,1.0285,1.0279,1.0266,1.0273,1.0201,1.0275,1.0274,1.0274,1.0274,1.0274,0.9717,0.9749,0.9792,0.9838,0.987,0.9906,0.994,0.9969,1.0012,1.0066,1.008,1.0132,1.0175,1.0245,1.0273,1.0315,1.0311,1.0324,1.0328,1.033,1.033,1.0259,1.0324,1.0324,1.0324,1.0324,1.0324,0,0.9773,0.9801,0.9844,0.9897,0.9934,0.9939,0.9983,1.0013,1.0059,1.0098,1.0139,1.0196,1.0244,1.0282,1.0332,1.0358,1.0363,1.037,1.0368,1.0374,1.0331,1.0318,1.0364,1.0364,1.0364,1.0364,1.0364,1.0364,0.9807,0.9861,0.9879,0.9949,0.9977,1.0028,1.0052,1.0085,1.0117,1.018,1.022,1.0244,1.0283,1.0335,1.0379,1.0389,1.0406,1.0412,1.0422,1.0382,1.0377,1.0373,1.0361,1.0415,1.0415,1.0462,1.0462,1.0463]},{"header":{"parameterUnit":"m.s-1","parameterCategory":1,"la1":30.2991,"la2":30.254,"lo1":-89.0895,"lo2":-89.0444,"dy":0.0017,"dx":0.0017,"nx":28,"ny":28,"refTime":"2025-01-31T03:00:00:Z","depth":0,"parameterNumber":3,"parameterNumberName":"V-component_of_WINDS"},"data":[0,0,0,0,0,0,0,0,0,0,0,0,0,0,0,0,0,0,0,0,0,0,0,0,0,0,0,0,0,0,0,0,0,0,0,0,0,0,0,0,0,0,0,0,0,0,0,0,0,0,0,0,0,0,0,0,0,0,1.516,1.516,0,1.5121,1.5121,1.5121,1.5127,1.5128,1.5129,1.5129,1.5086,1.5085,1.5083,0,0,0,0,0,0,0,0,0,0,0,0,0,1.5235,1.5233,1.516,1.516,1.5159,1.5122,1.5121,1.512,1.5127,1.5128,1.5129,1.513,1.5087,1.5085,1.5083,0,0,0,0,0,0,0,0,0,0,0,0,0,1.52,1.5233,1.516,1.5158,1.5157,1.5122,1.5121,1.512,1.5127,1.5128,1.5129,1.513,1.5088,1.5085,1.5082,1.5045,0,0,1.5074,1.5073,0,0,0,0,0,0,0,0,1.5202,1.5197,1.5159,1.5158,1.5157,1.513,1.5132,1.5095,1.5127,1.5139,1.513,1.5131,1.51,1.5096,1.5087,1.5043,1.5041,1.5074,1.5072,1.5071,1.507,0,0,0,0,0,0,0,1.5204,1.5199,1.5145,1.5158,1.5157,1.5157,1.5154,1.5125,1.5114,1.5138,1.5138,1.5134,1.51,1.5089,1.5086,1.504,1.5074,1.5072,1.507,1.5069,1.4961,1.496,0,0,0,0,0,0,1.5208,1.5201,1.5146,1.5143,1.5183,1.5155,1.5151,1.5138,1.5114,1.5112,1.5133,1.5134,1.5093,1.5089,1.5084,1.5036,1.5071,1.5069,1.5067,1.4962,1.4961,1.4959,0,0,0,0,0,0,1.5209,1.5203,1.5147,1.5172,1.5165,1.5153,1.5138,1.5137,1.5126,1.5111,1.5108,1.5124,1.5094,1.5088,1.5054,1.5035,1.5067,1.5065,1.4964,1.4962,1.496,1.4942,0,0,0,0,0,0,1.5212,1.5203,1.519,1.5172,1.5164,1.5119,1.5137,1.5135,1.5122,1.5123,1.5102,1.5099,1.5094,1.5058,1.5052,1.5032,1.5063,1.4965,1.4963,1.4961,1.4944,1.494,1.4936,0,0,0,0,0,1.5214,1.5187,1.519,1.5183,1.5147,1.5119,1.5114,1.511,1.5121,1.5106,1.5096,1.51,1.5039,1.5055,1.5047,1.5027,1.4966,1.4964,1.4961,1.4946,1.4941,1.4936,0,0,0,0,0,0,1.5202,1.5184,1.5187,1.5153,1.5137,1.512,1.5102,1.5104,1.5084,1.5086,1.5081,1.5076,1.5041,1.5031,1.5049,1.4988,1.5004,1.4999,1.4995,1.499,1.4986,1.4988,1.5061,0,0,0,0,0,1.5196,1.5175,1.516,1.5132,1.5124,1.5114,1.5101,1.5099,1.5082,1.5075,1.5062,1.5044,1.5021,1.5005,1.4983,1.4944,1.4937,1.4926,1.4922,1.4918,1.4914,1.4889,1.4883,1.495,1.495,1.495,0,0,1.5182,1.517,1.5157,1.5129,1.5116,1.5093,1.5108,1.5084,1.5066,1.5071,1.5038,1.5028,1.5007,1.497,1.4953,1.496,1.4894,1.4915,1.4912,1.4909,1.4886,1.4879,1.4874,1.4948,1.4949,1.4949,0,0,1.5144,1.5134,1.5108,1.5095,1.5076,1.507,1.5064,1.5045,1.5039,1.5006,1.5009,1.4987,1.4947,1.4931,1.4918,1.4873,1.4875,1.4866,1.4844,1.482,1.4815,1.481,1.4791,1.4784,1.4862,1.4862,1.4862,0,1.5129,1.5096,1.5094,1.5069,1.5055,1.506,1.5032,1.5019,1.4993,1.4983,1.4992,1.4941,1.4928,1.4885,1.4874,1.4864,1.4855,1.4868,1.4816,1.4811,1.4806,1.4788,1.4781,1.4861,1.4861,1.4861,1.4861,0,1.5077,1.5053,1.5034,1.501,1.4994,1.4968,1.496,1.4944,1.4943,1.4935,1.49,1.4884,1.4858,1.4848,1.4847,1.4804,1.4809,1.4818,1.4833,1.4799,1.4781,1.4775,1.4859,1.486,1.486,1.486,0,0,1.503,1.5004,1.4997,1.4985,1.4964,1.4945,1.4917,1.4892,1.4877,1.486,1.4834,1.48,1.4807,1.4792,1.4789,1.4769,1.473,1.4779,1.4778,1.4768,1.4679,1.4671,1.4663,1.4733,1.4731,1.473,1.468,0,1.4988,1.4941,1.4938,1.4895,1.4871,1.4875,1.4851,1.4834,1.4826,1.4803,1.4794,1.4769,1.4781,1.4771,1.4752,1.4739,1.4712,1.4743,1.4707,1.4705,1.4709,1.4655,1.4647,1.46,1.4673,1.4672,1.4672,0,1.4933,1.4914,1.4868,1.4848,1.4838,1.4817,1.4792,1.4772,1.4752,1.4747,1.473,1.473,1.4699,1.4718,1.4674,1.4695,1.468,1.4672,1.467,1.4664,1.4685,1.4645,1.4585,1.4577,1.4661,1.4662,1.4663,0,1.49,1.4863,1.483,1.482,1.4797,1.4781,1.477,1.4752,1.4736,1.4714,1.4703,1.4678,1.4664,1.4643,1.4635,1.465,1.4591,1.4609,1.4583,1.4583,1.4569,1.4569,1.4503,1.4564,1.4564,1.4564,1.4564,0,1.4852,1.4824,1.4814,1.4794,1.4761,1.4757,1.4724,1.4714,1.4697,1.4673,1.4675,1.4652,1.4644,1.4619,1.4613,1.4576,1.457,1.4563,1.4561,1.4561,1.4562,1.4549,1.4551,1.4562,1.4562,1.4563,1.4563,0,1.4809,1.4802,1.4766,1.4747,1.4741,1.4718,1.47,1.4679,1.4672,1.4641,1.4634,1.462,1.4591,1.4581,1.4546,1.4541,1.4497,1.45,1.4504,1.4503,1.4476,1.4478,1.4397,1.4385,1.4457,1.4456,1.4456,0,1.4778,1.4756,1.4734,1.4719,1.4708,1.4683,1.4667,1.4662,1.4645,1.462,1.4601,1.4572,1.4549,1.4501,1.4487,1.4459,1.4459,1.4433,1.4455,1.4454,1.4455,1.4455,1.4451,1.4428,1.4427,1.4426,1.4426,0,1.4722,1.4719,1.4697,1.4672,1.4653,1.4634,1.4615,1.4601,1.4593,1.4573,1.4544,1.4526,1.4489,1.4459,1.4431,1.4418,1.4419,1.442,1.4411,1.441,1.4412,1.4407,1.449,1.4421,1.4421,1.4422,1.4422,1.4422,1.4682,1.4661,1.4642,1.4616,1.4602,1.4583,1.4562,1.4552,1.4527,1.4498,1.4496,1.4463,1.4442,1.4403,1.4389,1.4362,1.4369,1.4358,1.4355,1.4351,1.4347,1.4419,1.4357,1.4357,1.4357,1.4357,1.4357,0,1.4623,1.4611,1.4588,1.4561,1.454,1.4546,1.4524,1.4505,1.4477,1.4458,1.4434,1.4399,1.437,1.4353,1.4323,1.4304,1.4304,1.4296,1.4296,1.4292,1.4344,1.4353,1.4297,1.4297,1.4297,1.4297,1.4297,1.4297,1.459,1.4555,1.455,1.4506,1.4494,1.4463,1.445,1.4432,1.4416,1.4377,1.4353,1.4343,1.4324,1.4292,1.4265,1.4261,1.4248,1.4239,1.4235,1.4283,1.4289,1.4295,1.4303,1.4237,1.4237,1.4185,1.4184,1.4184]}]]